owner,sensor,date,latitude,longitude,vertical_datum,direction_of_sea_water_velocity,sea_water_speed,upward_sea_water_velocity,qcFlag 
TABS,ioos:station:wmo:42047:1,2011-06-01T00:00:00Z,27.8966,-93.5973,2.0,126.8980854,36.47600444,-99999.0,'11111222,11111222,99999999' 
TABS,ioos:station:wmo:42047:1,2011-06-01T00:30:00Z,27.8966,-93.5973,2.0,131.6145895,32.81044041,-99999.0,'11111222,11111222,99999999' 
TABS,ioos:station:wmo:42047:1,2011-06-01T01:00:00Z,27.8966,-93.5973,2.0,139.0348129,29.0421504,-99999.0,'11111222,11111222,99999999' 
TABS,ioos:station:wmo:42047:1,2011-06-01T01:30:00Z,27.8966,-93.5973,2.0,140.1197862,25.59331358,-99999.0,'11111222,11111222,99999999' 
TABS,ioos:station:wmo:42047:1,2011-06-01T02:00:00Z,27.8966,-93.5973,2.0,147.1827443,23.11981401,-99999.0,'11111222,11111222,99999999' 
TABS,ioos:station:wmo:42047:1,2011-06-01T02:30:00Z,27.8966,-93.5973,2.0,151.2180877,21.62106843,-99999.0,'11111222,11111222,99999999' 
TABS,ioos:station:wmo:42047:1,2011-06-01T03:00:00Z,27.8966,-93.5973,2.0,157.7440454,17.79574387,-99999.0,'11111222,11111222,99999999' 
TABS,ioos:station:wmo:42047:1,2011-06-01T03:30:00Z,27.8966,-93.5973,2.0,163.5682357,15.3780688,-99999.0,'11111222,11111222,99999999' 
TABS,ioos:station:wmo:42047:1,2011-06-01T04:00:00Z,27.8966,-93.5973,2.0,169.3010847,8.457008928,-99999.0,'11133222,11111222,99999999' 
TABS,ioos:station:wmo:42047:1,2011-06-01T04:30:00Z,27.8966,-93.5973,2.0,177.2863864,4.224736678,-99999.0,'11133222,11111222,99999999' 
TABS,ioos:station:wmo:42047:1,2011-06-01T05:00:00Z,27.8966,-93.5973,2.0,61.55713789,0.272946881,-99999.0,'11133222,11111222,99999999' 
TABS,ioos:station:wmo:42047:1,2011-06-01T05:30:00Z,27.8966,-93.5973,2.0,318.0330112,2.138457388,-99999.0,'11133222,11111222,99999999' 
TABS,ioos:station:wmo:42047:1,2011-06-01T06:00:00Z,27.8966,-93.5973,2.0,283.6130986,5.905903826,-99999.0,'11133222,11111222,99999999' 
TABS,ioos:station:wmo:42047:1,2011-06-01T06:30:00Z,27.8966,-93.5973,2.0,312.021677,7.484230087,-99999.0,'11133222,11111222,99999999' 
TABS,ioos:station:wmo:42047:1,2011-06-01T07:00:00Z,27.8966,-93.5973,2.0,309.1026023,9.909520675,-99999.0,'11133222,11111222,99999999' 
TABS,ioos:station:wmo:42047:1,2011-06-01T07:30:00Z,27.8966,-93.5973,2.0,330.582643,13.0300614,-99999.0,'11111222,11111222,99999999' 
TABS,ioos:station:wmo:42047:1,2011-06-01T08:00:00Z,27.8966,-93.5973,2.0,350.518911,14.8731772,-99999.0,'11111222,11111222,99999999' 
TABS,ioos:station:wmo:42047:1,2011-06-01T08:30:00Z,27.8966,-93.5973,2.0,6.281159442,17.09260074,-99999.0,'11111222,11111222,99999999' 
TABS,ioos:station:wmo:42047:1,2011-06-01T09:00:00Z,27.8966,-93.5973,2.0,16.93123701,20.12217931,-99999.0,'11111222,11111222,99999999' 
TABS,ioos:station:wmo:42047:1,2011-06-01T09:30:00Z,27.8966,-93.5973,2.0,21.59329781,20.43405001,-99999.0,'11111222,11111222,99999999' 
TABS,ioos:station:wmo:42047:1,2011-06-01T10:00:00Z,27.8966,-93.5973,2.0,23.46417799,21.8246764,-99999.0,'11111222,11111222,99999999' 
TABS,ioos:station:wmo:42047:1,2011-06-01T10:30:00Z,27.8966,-93.5973,2.0,23.63356727,24.39612469,-99999.0,'11111222,11111222,99999999' 
TABS,ioos:station:wmo:42047:1,2011-06-01T11:00:00Z,27.8966,-93.5973,2.0,38.80388691,25.48451491,-99999.0,'11111222,11111222,99999999' 
TABS,ioos:station:wmo:42047:1,2011-06-01T11:30:00Z,27.8966,-93.5973,2.0,37.36515151,25.22694195,-99999.0,'11111222,11111222,99999999' 
TABS,ioos:station:wmo:42047:1,2011-06-01T12:00:00Z,27.8966,-93.5973,2.0,41.87906597,27.14366409,-99999.0,'11111222,11111222,99999999' 
TABS,ioos:station:wmo:42047:1,2011-06-01T12:30:00Z,27.8966,-93.5973,2.0,42.91155427,29.49180225,-99999.0,'11111222,11111222,99999999' 
TABS,ioos:station:wmo:42047:1,2011-06-01T13:00:00Z,27.8966,-93.5973,2.0,49.04009333,29.10612994,-99999.0,'11111222,11111222,99999999' 
TABS,ioos:station:wmo:42047:1,2011-06-01T13:30:00Z,27.8966,-93.5973,2.0,51.52673873,30.23383866,-99999.0,'11111222,11111222,99999999' 
TABS,ioos:station:wmo:42047:1,2011-06-01T14:00:00Z,27.8966,-93.5973,2.0,58.97720082,29.91965909,-99999.0,'11111222,11111222,99999999' 
TABS,ioos:station:wmo:42047:1,2011-06-01T14:30:00Z,27.8966,-93.5973,2.0,60.55286599,31.75208025,-99999.0,'11111222,11111222,99999999' 
TABS,ioos:station:wmo:42047:1,2011-06-01T15:00:00Z,27.8966,-93.5973,2.0,65.34614821,25.74699206,-99999.0,'11111222,11111222,99999999' 
TABS,ioos:station:wmo:42047:1,2011-06-01T15:30:00Z,27.8966,-93.5973,2.0,69.01072102,26.46610096,-99999.0,'11111222,11111222,99999999' 
TABS,ioos:station:wmo:42047:1,2011-06-01T16:00:00Z,27.8966,-93.5973,2.0,69.09567277,25.02737102,-99999.0,'11111222,11111222,99999999' 
TABS,ioos:station:wmo:42047:1,2011-06-01T16:30:00Z,27.8966,-93.5973,2.0,64.90380822,24.42588791,-99999.0,'11111222,11111222,99999999' 
TABS,ioos:station:wmo:42047:1,2011-06-01T17:00:00Z,27.8966,-93.5973,2.0,69.98908816,24.60550345,-99999.0,'11111222,11111222,99999999' 
TABS,ioos:station:wmo:42047:1,2011-06-01T17:30:00Z,27.8966,-93.5973,2.0,70.82690567,24.05428028,-99999.0,'11111222,11111222,99999999' 
TABS,ioos:station:wmo:42047:1,2011-06-01T18:00:00Z,27.8966,-93.5973,2.0,78.39423398,24.30695785,-99999.0,'11111222,11111222,99999999' 
TABS,ioos:station:wmo:42047:1,2011-06-01T18:30:00Z,27.8966,-93.5973,2.0,84.88043312,26.33506028,-99999.0,'11111222,11111222,99999999' 
TABS,ioos:station:wmo:42047:1,2011-06-01T19:00:00Z,27.8966,-93.5973,2.0,89.43072204,28.18139102,-99999.0,'11111222,11111222,99999999' 
TABS,ioos:station:wmo:42047:1,2011-06-01T19:30:00Z,27.8966,-93.5973,2.0,98.47780128,28.89574363,-99999.0,'11111222,11111222,99999999' 
TABS,ioos:station:wmo:42047:1,2011-06-01T20:00:00Z,27.8966,-93.5973,2.0,105.2102998,28.05270932,-99999.0,'11111222,11111222,99999999' 
TABS,ioos:station:wmo:42047:1,2011-06-01T20:30:00Z,27.8966,-93.5973,2.0,109.9893983,30.89101002,-99999.0,'11111222,11111222,99999999' 
TABS,ioos:station:wmo:42047:1,2011-06-01T21:00:00Z,27.8966,-93.5973,2.0,117.1741532,31.96863463,-99999.0,'11111222,11111222,99999999' 
TABS,ioos:station:wmo:42047:1,2011-06-01T21:30:00Z,27.8966,-93.5973,2.0,119.5025198,31.67751411,-99999.0,'11111222,11111222,99999999' 
TABS,ioos:station:wmo:42047:1,2011-06-01T22:00:00Z,27.8966,-93.5973,2.0,126.293888,32.2336284,-99999.0,'11111222,11111222,99999999' 
TABS,ioos:station:wmo:42047:1,2011-06-01T22:30:00Z,27.8966,-93.5973,2.0,130.6053567,29.89952508,-99999.0,'11111222,11111222,99999999' 
TABS,ioos:station:wmo:42047:1,2011-06-01T23:00:00Z,27.8966,-93.5973,2.0,140.1188653,25.28090386,-99999.0,'11111222,11111222,99999999' 
TABS,ioos:station:wmo:42047:1,2011-06-01T23:30:00Z,27.8966,-93.5973,2.0,136.8537914,24.91734336,-99999.0,'11111222,11111222,99999999' 
TABS,ioos:station:wmo:42047:1,2011-06-02T00:00:00Z,27.8966,-93.5973,2.0,142.4862887,23.49948297,-99999.0,'11111222,11111222,99999999' 
TABS,ioos:station:wmo:42047:1,2011-06-02T00:30:00Z,27.8966,-93.5973,2.0,137.8458225,19.65352386,-99999.0,'11111222,11111222,99999999' 
TABS,ioos:station:wmo:42047:1,2011-06-02T01:00:00Z,27.8966,-93.5973,2.0,136.0549439,15.36096351,-99999.0,'11111222,11111222,99999999' 
TABS,ioos:station:wmo:42047:1,2011-06-02T01:30:00Z,27.8966,-93.5973,2.0,144.5023249,13.27780855,-99999.0,'11111222,11111222,99999999' 
TABS,ioos:station:wmo:42047:1,2011-06-02T02:00:00Z,27.8966,-93.5973,2.0,136.4860051,11.99656618,-99999.0,'11111222,11111222,99999999' 
TABS,ioos:station:wmo:42047:1,2011-06-02T02:30:00Z,27.8966,-93.5973,2.0,147.2102766,10.76528681,-99999.0,'11111222,11111222,99999999' 
TABS,ioos:station:wmo:42047:1,2011-06-02T03:00:00Z,27.8966,-93.5973,2.0,159.9680267,7.035637853,-99999.0,'11133222,11111222,99999999' 
TABS,ioos:station:wmo:42047:1,2011-06-02T03:30:00Z,27.8966,-93.5973,2.0,130.0236422,5.380148697,-99999.0,'11133222,11111222,99999999' 
TABS,ioos:station:wmo:42047:1,2011-06-02T04:00:00Z,27.8966,-93.5973,2.0,129.4230492,4.220189569,-99999.0,'11133222,11111222,99999999' 
TABS,ioos:station:wmo:42047:1,2011-06-02T04:30:00Z,27.8966,-93.5973,2.0,62.64681447,5.201586297,-99999.0,'11133222,11111222,99999999' 
TABS,ioos:station:wmo:42047:1,2011-06-02T05:00:00Z,27.8966,-93.5973,2.0,50.88656921,8.480501164,-99999.0,'11133222,11111222,99999999' 
TABS,ioos:station:wmo:42047:1,2011-06-02T05:30:00Z,27.8966,-93.5973,2.0,50.20879239,5.140680889,-99999.0,'11133222,11111222,99999999' 
TABS,ioos:station:wmo:42047:1,2011-06-02T06:00:00Z,27.8966,-93.5973,2.0,23.30226178,2.907129168,-99999.0,'11133222,11111222,99999999' 
TABS,ioos:station:wmo:42047:1,2011-06-02T06:30:00Z,27.8966,-93.5973,2.0,4.447584909,3.610872471,-99999.0,'11133222,11111222,99999999' 
TABS,ioos:station:wmo:42047:1,2011-06-02T07:00:00Z,27.8966,-93.5973,2.0,45.00010523,1.753624817,-99999.0,'11133222,11111222,99999999' 
TABS,ioos:station:wmo:42047:1,2011-06-02T07:30:00Z,27.8966,-93.5973,2.0,312.745746,1.797442628,-99999.0,'11133222,11111222,99999999' 
TABS,ioos:station:wmo:42047:1,2011-06-02T08:00:00Z,27.8966,-93.5973,2.0,323.130399,0.65,-99999.0,'11133222,11111222,99999999' 
TABS,ioos:station:wmo:42047:1,2011-06-02T08:30:00Z,27.8966,-93.5973,2.0,44.33057057,4.235858827,-99999.0,'11133222,11111222,99999999' 
TABS,ioos:station:wmo:42047:1,2011-06-02T09:00:00Z,27.8966,-93.5973,2.0,55.97882624,6.237707912,-99999.0,'11133222,11111222,99999999' 
TABS,ioos:station:wmo:42047:1,2011-06-02T09:30:00Z,27.8966,-93.5973,2.0,33.83166964,14.60252718,-99999.0,'11111222,11111222,99999999' 
TABS,ioos:station:wmo:42047:1,2011-06-02T10:00:00Z,27.8966,-93.5973,2.0,39.08560993,16.60641442,-99999.0,'11111222,11111222,99999999' 
TABS,ioos:station:wmo:42047:1,2011-06-02T10:30:00Z,27.8966,-93.5973,2.0,41.93199457,17.70304494,-99999.0,'11111222,11111222,99999999' 
TABS,ioos:station:wmo:42047:1,2011-06-02T11:00:00Z,27.8966,-93.5973,2.0,45.22837353,19.52337317,-99999.0,'11111222,11111222,99999999' 
TABS,ioos:station:wmo:42047:1,2011-06-02T11:30:00Z,27.8966,-93.5973,2.0,58.96373465,20.30716376,-99999.0,'11111222,11111222,99999999' 
TABS,ioos:station:wmo:42047:1,2011-06-02T12:00:00Z,27.8966,-93.5973,2.0,67.81045134,20.28211034,-99999.0,'11111222,11111222,99999999' 
TABS,ioos:station:wmo:42047:1,2011-06-02T12:30:00Z,27.8966,-93.5973,2.0,65.0666425,20.732284,-99999.0,'11111222,11111222,99999999' 
TABS,ioos:station:wmo:42047:1,2011-06-02T13:00:00Z,27.8966,-93.5973,2.0,61.20862721,19.45506104,-99999.0,'11111222,11111222,99999999' 
TABS,ioos:station:wmo:42047:1,2011-06-02T13:30:00Z,27.8966,-93.5973,2.0,65.86878016,22.74791419,-99999.0,'11111222,11111222,99999999' 
TABS,ioos:station:wmo:42047:1,2011-06-02T14:00:00Z,27.8966,-93.5973,2.0,61.20477493,17.81259386,-99999.0,'11111222,11111222,99999999' 
TABS,ioos:station:wmo:42047:1,2011-06-02T14:30:00Z,27.8966,-93.5973,2.0,64.52178986,18.15566578,-99999.0,'11111222,11111222,99999999' 
TABS,ioos:station:wmo:42047:1,2011-06-02T15:00:00Z,27.8966,-93.5973,2.0,67.78989845,21.08438522,-99999.0,'11111222,11111222,99999999' 
TABS,ioos:station:wmo:42047:1,2011-06-02T15:30:00Z,27.8966,-93.5973,2.0,73.25540415,21.76277786,-99999.0,'11111222,11111222,99999999' 
TABS,ioos:station:wmo:42047:1,2011-06-02T16:00:00Z,27.8966,-93.5973,2.0,72.33990523,24.78819881,-99999.0,'11111222,11111222,99999999' 
TABS,ioos:station:wmo:42047:1,2011-06-02T16:30:00Z,27.8966,-93.5973,2.0,77.91791437,25.32089256,-99999.0,'11111222,11111222,99999999' 
TABS,ioos:station:wmo:42047:1,2011-06-02T17:00:00Z,27.8966,-93.5973,2.0,85.68665542,24.19853921,-99999.0,'11111222,11111222,99999999' 
TABS,ioos:station:wmo:42047:1,2011-06-02T17:30:00Z,27.8966,-93.5973,2.0,87.26247458,24.28771706,-99999.0,'11111222,11111222,99999999' 
TABS,ioos:station:wmo:42047:1,2011-06-02T18:00:00Z,27.8966,-93.5973,2.0,97.72979737,24.08888748,-99999.0,'11111222,11111222,99999999' 
TABS,ioos:station:wmo:42047:1,2011-06-02T18:30:00Z,27.8966,-93.5973,2.0,106.5080146,27.55585782,-99999.0,'11111222,11111222,99999999' 
TABS,ioos:station:wmo:42047:1,2011-06-02T19:00:00Z,27.8966,-93.5973,2.0,115.5623708,27.34682614,-99999.0,'11111222,11111222,99999999' 
TABS,ioos:station:wmo:42047:1,2011-06-02T19:30:00Z,27.8966,-93.5973,2.0,120.4058673,29.2418946,-99999.0,'11111222,11111222,99999999' 
TABS,ioos:station:wmo:42047:1,2011-06-02T20:00:00Z,27.8966,-93.5973,2.0,127.6329439,31.98483703,-99999.0,'11111222,11111222,99999999' 
TABS,ioos:station:wmo:42047:1,2011-06-02T20:30:00Z,27.8966,-93.5973,2.0,138.5694321,33.50407886,-99999.0,'11111222,11111222,99999999' 
TABS,ioos:station:wmo:42047:1,2011-06-02T21:00:00Z,27.8966,-93.5973,2.0,141.8357202,32.49629056,-99999.0,'11111222,11111222,99999999' 
TABS,ioos:station:wmo:42047:1,2011-06-02T21:30:00Z,27.8966,-93.5973,2.0,142.3730492,31.79277434,-99999.0,'11111222,11111222,99999999' 
TABS,ioos:station:wmo:42047:1,2011-06-02T22:00:00Z,27.8966,-93.5973,2.0,147.8674481,33.46633532,-99999.0,'11111222,11111222,99999999' 
TABS,ioos:station:wmo:42047:1,2011-06-02T22:30:00Z,27.8966,-93.5973,2.0,149.4881489,35.8666154,-99999.0,'11111222,11111222,99999999' 
TABS,ioos:station:wmo:42047:1,2011-06-02T23:00:00Z,27.8966,-93.5973,2.0,152.5545269,34.93150441,-99999.0,'11111222,11111222,99999999' 
TABS,ioos:station:wmo:42047:1,2011-06-02T23:30:00Z,27.8966,-93.5973,2.0,160.7563858,32.49563817,-99999.0,'11111222,11111222,99999999' 
TABS,ioos:station:wmo:42047:1,2011-06-03T00:00:00Z,27.8966,-93.5973,2.0,165.8963042,30.98394746,-99999.0,'11111222,11111222,99999999' 
TABS,ioos:station:wmo:42047:1,2011-06-03T00:30:00Z,27.8966,-93.5973,2.0,171.5014575,31.46548744,-99999.0,'11111222,11111222,99999999' 
TABS,ioos:station:wmo:42047:1,2011-06-03T01:00:00Z,27.8966,-93.5973,2.0,174.1149108,26.82135157,-99999.0,'11111222,11111222,99999999' 
TABS,ioos:station:wmo:42047:1,2011-06-03T01:30:00Z,27.8966,-93.5973,2.0,182.7032686,22.68524851,-99999.0,'11111222,11111222,99999999' 
TABS,ioos:station:wmo:42047:1,2011-06-03T02:00:00Z,27.8966,-93.5973,2.0,187.3595151,22.40458212,-99999.0,'11111222,11111222,99999999' 
TABS,ioos:station:wmo:42047:1,2011-06-03T02:30:00Z,27.8966,-93.5973,2.0,193.116195,19.03664886,-99999.0,'11111222,11111222,99999999' 
TABS,ioos:station:wmo:42047:1,2011-06-03T03:00:00Z,27.8966,-93.5973,2.0,208.036611,15.14764998,-99999.0,'11111222,11111222,99999999' 
TABS,ioos:station:wmo:42047:1,2011-06-03T03:30:00Z,27.8966,-93.5973,2.0,211.6114129,17.89530665,-99999.0,'11111222,11111222,99999999' 
TABS,ioos:station:wmo:42047:1,2011-06-03T04:00:00Z,27.8966,-93.5973,2.0,222.5937194,16.00179052,-99999.0,'11111222,11111222,99999999' 
TABS,ioos:station:wmo:42047:1,2011-06-03T04:30:00Z,27.8966,-93.5973,2.0,240.0449116,14.90039261,-99999.0,'11111222,11111222,99999999' 
TABS,ioos:station:wmo:42047:1,2011-06-03T05:00:00Z,27.8966,-93.5973,2.0,253.4602912,13.38375881,-99999.0,'11111222,11111222,99999999' 
TABS,ioos:station:wmo:42047:1,2011-06-03T05:30:00Z,27.8966,-93.5973,2.0,260.1070239,14.66809122,-99999.0,'11111222,11111222,99999999' 
TABS,ioos:station:wmo:42047:1,2011-06-03T06:00:00Z,27.8966,-93.5973,2.0,283.8809373,15.17308472,-99999.0,'11111222,11111222,99999999' 
TABS,ioos:station:wmo:42047:1,2011-06-03T06:30:00Z,27.8966,-93.5973,2.0,295.4080796,15.49911288,-99999.0,'11111222,11111222,99999999' 
TABS,ioos:station:wmo:42047:1,2011-06-03T07:00:00Z,27.8966,-93.5973,2.0,311.8170325,19.48256913,-99999.0,'11111222,11111222,99999999' 
TABS,ioos:station:wmo:42047:1,2011-06-03T07:30:00Z,27.8966,-93.5973,2.0,319.1490266,22.87119586,-99999.0,'11111222,11111222,99999999' 
TABS,ioos:station:wmo:42047:1,2011-06-03T08:00:00Z,27.8966,-93.5973,2.0,335.1560734,26.65700846,-99999.0,'11111222,11111222,99999999' 
TABS,ioos:station:wmo:42047:1,2011-06-03T08:30:00Z,27.8966,-93.5973,2.0,342.6419055,31.64101136,-99999.0,'11111222,11111222,99999999' 
TABS,ioos:station:wmo:42047:1,2011-06-03T09:00:00Z,27.8966,-93.5973,2.0,342.1853178,34.4834946,-99999.0,'11111222,11111222,99999999' 
TABS,ioos:station:wmo:42047:1,2011-06-03T09:30:00Z,27.8966,-93.5973,2.0,344.3599158,34.57002314,-99999.0,'11111222,11111222,99999999' 
TABS,ioos:station:wmo:42047:1,2011-06-03T10:00:00Z,27.8966,-93.5973,2.0,345.8310378,37.62465282,-99999.0,'11111222,11111222,99999999' 
TABS,ioos:station:wmo:42047:1,2011-06-03T10:30:00Z,27.8966,-93.5973,2.0,352.4895856,37.41096363,-99999.0,'11111222,11111222,99999999' 
TABS,ioos:station:wmo:42047:1,2011-06-03T11:00:00Z,27.8966,-93.5973,2.0,354.9943896,35.75638125,-99999.0,'11111222,11111222,99999999' 
TABS,ioos:station:wmo:42047:1,2011-06-03T11:30:00Z,27.8966,-93.5973,2.0,355.3652215,33.2888645,-99999.0,'11111222,11111222,99999999' 
TABS,ioos:station:wmo:42047:1,2011-06-03T12:00:00Z,27.8966,-93.5973,2.0,3.618715506,38.97770645,-99999.0,'11111222,11111222,99999999' 
TABS,ioos:station:wmo:42047:1,2011-06-03T12:30:00Z,27.8966,-93.5973,2.0,8.631678377,36.84733098,-99999.0,'11111222,11111222,99999999' 
TABS,ioos:station:wmo:42047:1,2011-06-03T13:00:00Z,27.8966,-93.5973,2.0,14.21788245,35.99246727,-99999.0,'11111222,11111222,99999999' 
TABS,ioos:station:wmo:42047:1,2011-06-03T13:30:00Z,27.8966,-93.5973,2.0,18.67317862,37.29306236,-99999.0,'11111222,11111222,99999999' 
TABS,ioos:station:wmo:42047:1,2011-06-03T14:00:00Z,27.8966,-93.5973,2.0,26.53909077,39.25641349,-99999.0,'11111222,11111222,99999999' 
TABS,ioos:station:wmo:42047:1,2011-06-03T14:30:00Z,27.8966,-93.5973,2.0,27.57701498,36.72196209,-99999.0,'11111222,11111222,99999999' 
TABS,ioos:station:wmo:42047:1,2011-06-03T15:00:00Z,27.8966,-93.5973,2.0,30.65080674,38.60319287,-99999.0,'11111222,11111222,99999999' 
TABS,ioos:station:wmo:42047:1,2011-06-03T15:30:00Z,27.8966,-93.5973,2.0,33.17023514,37.28570906,-99999.0,'11111222,11111222,99999999' 
TABS,ioos:station:wmo:42047:1,2011-06-03T16:00:00Z,27.8966,-93.5973,2.0,34.46998507,35.86746297,-99999.0,'11111222,11111222,99999999' 
TABS,ioos:station:wmo:42047:1,2011-06-03T16:30:00Z,27.8966,-93.5973,2.0,36.49638794,35.57675646,-99999.0,'11111222,11111222,99999999' 
TABS,ioos:station:wmo:42047:1,2011-06-03T17:00:00Z,27.8966,-93.5973,2.0,38.29847896,34.6587709,-99999.0,'11111222,11111222,99999999' 
TABS,ioos:station:wmo:42047:1,2011-06-03T17:30:00Z,27.8966,-93.5973,2.0,45.05085424,31.93295476,-99999.0,'11111222,11111222,99999999' 
TABS,ioos:station:wmo:42047:1,2011-06-03T18:00:00Z,27.8966,-93.5973,2.0,45.83343767,31.11598946,-99999.0,'11111222,11111222,99999999' 
TABS,ioos:station:wmo:42047:1,2011-06-03T18:30:00Z,27.8966,-93.5973,2.0,52.0797402,28.80084027,-99999.0,'11111222,11111222,99999999' 
TABS,ioos:station:wmo:42047:1,2011-06-03T19:00:00Z,27.8966,-93.5973,2.0,53.23312037,24.49203952,-99999.0,'11111222,11111222,99999999' 
TABS,ioos:station:wmo:42047:1,2011-06-03T19:30:00Z,27.8966,-93.5973,2.0,67.13529991,25.91639057,-99999.0,'11111222,11111222,99999999' 
TABS,ioos:station:wmo:42047:1,2011-06-03T20:00:00Z,27.8966,-93.5973,2.0,69.04103675,24.62957775,-99999.0,'11111222,11111222,99999999' 
TABS,ioos:station:wmo:42047:1,2011-06-03T20:30:00Z,27.8966,-93.5973,2.0,79.36606353,24.6025202,-99999.0,'11111222,11111222,99999999' 
TABS,ioos:station:wmo:42047:1,2011-06-03T21:00:00Z,27.8966,-93.5973,2.0,90.92163306,23.00297589,-99999.0,'11111222,11111222,99999999' 
TABS,ioos:station:wmo:42047:1,2011-06-03T21:30:00Z,27.8966,-93.5973,2.0,101.1559102,24.8087807,-99999.0,'11111222,11111222,99999999' 
TABS,ioos:station:wmo:42047:1,2011-06-03T22:00:00Z,27.8966,-93.5973,2.0,97.13499253,21.33521502,-99999.0,'11111222,11111222,99999999' 
TABS,ioos:station:wmo:42047:1,2011-06-03T22:30:00Z,27.8966,-93.5973,2.0,115.1859158,24.15653121,-99999.0,'11111222,11111222,99999999' 
TABS,ioos:station:wmo:42047:1,2011-06-03T23:00:00Z,27.8966,-93.5973,2.0,128.4638164,23.29501449,-99999.0,'11111222,11111222,99999999' 
TABS,ioos:station:wmo:42047:1,2011-06-03T23:30:00Z,27.8966,-93.5973,2.0,140.3802387,22.09544071,-99999.0,'11111222,11111222,99999999' 
TABS,ioos:station:wmo:42047:1,2011-06-04T00:00:00Z,27.8966,-93.5973,2.0,141.470065,22.71553213,-99999.0,'11111222,11111222,99999999' 
TABS,ioos:station:wmo:42047:1,2011-06-04T00:30:00Z,27.8966,-93.5973,2.0,149.7552599,27.87414573,-99999.0,'11111222,11111222,99999999' 
TABS,ioos:station:wmo:42047:1,2011-06-04T01:00:00Z,27.8966,-93.5973,2.0,163.2802126,21.55109278,-99999.0,'11111222,11111222,99999999' 
TABS,ioos:station:wmo:42047:1,2011-06-04T01:30:00Z,27.8966,-93.5973,2.0,181.7978472,19.75972925,-99999.0,'11111222,11111222,99999999' 
TABS,ioos:station:wmo:42047:1,2011-06-04T02:00:00Z,27.8966,-93.5973,2.0,177.6231605,20.49763157,-99999.0,'11111222,11111222,99999999' 
TABS,ioos:station:wmo:42047:1,2011-06-04T02:30:00Z,27.8966,-93.5973,2.0,188.552357,16.87768349,-99999.0,'11111222,11111222,99999999' 
TABS,ioos:station:wmo:42047:1,2011-06-04T03:00:00Z,27.8966,-93.5973,2.0,188.9883739,14.91314186,-99999.0,'11111222,11111222,99999999' 
TABS,ioos:station:wmo:42047:1,2011-06-04T03:30:00Z,27.8966,-93.5973,2.0,200.006249,14.64369147,-99999.0,'11111222,11111222,99999999' 
TABS,ioos:station:wmo:42047:1,2011-06-04T04:00:00Z,27.8966,-93.5973,2.0,210.7227371,13.87778801,-99999.0,'11111222,11111222,99999999' 
TABS,ioos:station:wmo:42047:1,2011-06-04T04:30:00Z,27.8966,-93.5973,2.0,234.8953581,10.45096168,-99999.0,'11111222,11111222,99999999' 
TABS,ioos:station:wmo:42047:1,2011-06-04T05:00:00Z,27.8966,-93.5973,2.0,247.0654345,9.674760979,-99999.0,'11133222,11111222,99999999' 
TABS,ioos:station:wmo:42047:1,2011-06-04T05:30:00Z,27.8966,-93.5973,2.0,269.442246,10.28048637,-99999.0,'11111222,11111222,99999999' 
TABS,ioos:station:wmo:42047:1,2011-06-04T06:00:00Z,27.8966,-93.5973,2.0,279.5726406,13.71090077,-99999.0,'11111222,11111222,99999999' 
TABS,ioos:station:wmo:42047:1,2011-06-04T06:30:00Z,27.8966,-93.5973,2.0,299.8779227,13.38958551,-99999.0,'11111222,11111222,99999999' 
TABS,ioos:station:wmo:42047:1,2011-06-04T07:00:00Z,27.8966,-93.5973,2.0,316.9337177,16.13829297,-99999.0,'11111222,11111222,99999999' 
TABS,ioos:station:wmo:42047:1,2011-06-04T07:30:00Z,27.8966,-93.5973,2.0,320.4589036,14.71799579,-99999.0,'11111222,11111222,99999999' 
TABS,ioos:station:wmo:42047:1,2011-06-04T08:00:00Z,27.8966,-93.5973,2.0,322.084142,17.08684874,-99999.0,'11111222,11111222,99999999' 
TABS,ioos:station:wmo:42047:1,2011-06-04T08:30:00Z,27.8966,-93.5973,2.0,334.5476184,16.12508915,-99999.0,'11111222,11111222,99999999' 
TABS,ioos:station:wmo:42047:1,2011-06-04T09:00:00Z,27.8966,-93.5973,2.0,332.1553205,18.21955543,-99999.0,'11111222,11111222,99999999' 
TABS,ioos:station:wmo:42047:1,2011-06-04T09:30:00Z,27.8966,-93.5973,2.0,341.1271057,19.84703504,-99999.0,'11111222,11111222,99999999' 
TABS,ioos:station:wmo:42047:1,2011-06-04T10:00:00Z,27.8966,-93.5973,2.0,339.5002961,19.13155509,-99999.0,'11111222,11111222,99999999' 
TABS,ioos:station:wmo:42047:1,2011-06-04T10:30:00Z,27.8966,-93.5973,2.0,340.79522,17.17588135,-99999.0,'11111222,11111222,99999999' 
TABS,ioos:station:wmo:42047:1,2011-06-04T11:00:00Z,27.8966,-93.5973,2.0,343.2176056,18.42476594,-99999.0,'11111222,11111222,99999999' 
TABS,ioos:station:wmo:42047:1,2011-06-04T11:30:00Z,27.8966,-93.5973,2.0,342.3405975,18.22903728,-99999.0,'11111222,11111222,99999999' 
TABS,ioos:station:wmo:42047:1,2011-06-04T12:00:00Z,27.8966,-93.5973,2.0,349.5931436,18.54508291,-99999.0,'11111222,11111222,99999999' 
TABS,ioos:station:wmo:42047:1,2011-06-04T12:30:00Z,27.8966,-93.5973,2.0,358.1419769,19.12005492,-99999.0,'11111222,11111222,99999999' 
TABS,ioos:station:wmo:42047:1,2011-06-04T13:00:00Z,27.8966,-93.5973,2.0,9.440673229,17.25367497,-99999.0,'11111222,11111222,99999999' 
TABS,ioos:station:wmo:42047:1,2011-06-04T13:30:00Z,27.8966,-93.5973,2.0,10.40169929,18.55491849,-99999.0,'11111222,11111222,99999999' 
TABS,ioos:station:wmo:42047:1,2011-06-04T14:00:00Z,27.8966,-93.5973,2.0,17.81475445,18.10826331,-99999.0,'11111222,11111222,99999999' 
TABS,ioos:station:wmo:42047:1,2011-06-04T14:30:00Z,27.8966,-93.5973,2.0,26.93320008,18.10357976,-99999.0,'11111222,11111222,99999999' 
TABS,ioos:station:wmo:42047:1,2011-06-04T15:00:00Z,27.8966,-93.5973,2.0,40.05057625,17.37476331,-99999.0,'11111222,11111222,99999999' 
TABS,ioos:station:wmo:42047:1,2011-06-04T15:30:00Z,27.8966,-93.5973,2.0,34.17711931,16.64438043,-99999.0,'11111222,11111222,99999999' 
TABS,ioos:station:wmo:42047:1,2011-06-04T16:00:00Z,27.8966,-93.5973,2.0,26.90801536,17.19119833,-99999.0,'11111222,11111222,99999999' 